Date,TemperatureHighF,TemperatureAvgF,TemperatureLowF,DewpointHighF,DewpointAvgF,DewpointLowF,HumidityHigh,HumidityAvg,HumidityLow,PressureMaxIn,PressureMinIn,WindSpeedMaxMPH,WindSpeedAvgMPH,GustSpeedMaxMPH,PrecipitationSumIn
2013-3-1,62,48,36,33,28,21,74,48,34,30.42,30.27,13,4,15,0.00
2013-3-2,58,47,34,31,26,23,67,45,35,30.27,30.06,13,4,14,0.00
2013-3-3,44,34,20,27,17,6,75,50,38,30.15,30.06,11,3,13,0.00
2013-3-4,51,31,13,26,13,2,75,48,37,30.15,29.91,11,2,17,0.00
2013-3-5,43,33,22,26,17,8,76,54,40,29.91,29.68,8,2,11,0.00
2013-3-6,44,35,30,32,23,16,92,64,40,29.91,29.53,26,5,26,0.00
2013-3-7,46,35,23,26,18,13,79,52,38,29.97,29.88,10,4,13,0.00
2013-3-8,46,31,22,29,20,12,82,64,39,30.12,29.94,13,1,18,0.08
2013-3-9,55,34,15,28,17,7,75,50,36,30.39,30.12,10,2,13,0.00
2013-3-10,61,43,25,33,23,0,68,46,35,30.39,30.27,15,4,15,0.00
2013-3-11,58,44,30,33,29,23,91,58,37,30.30,30.18,8,2,11,0.00
2013-3-12,64,47,32,35,29,20,93,52,34,30.21,30.06,12,3,12,0.00
2013-3-13,68,49,37,37,27,21,58,43,33,30.18,30.09,8,1,11,0.00
2013-3-14,69,54,36,39,29,20,65,39,33,30.15,30.03,16,6,22,0.00
2013-3-15,60,43,29,32,25,17,79,49,35,30.18,30.09,9,2,13,0.00
2013-3-16,54,38,25,31,24,18,84,59,36,30.12,29.91,22,4,25,0.00
2013-3-17,43,33,23,24,15,9,72,48,38,30.12,29.97,17,3,17,0.00
2013-3-18,55,32,13,28,14,4,73,49,36,30.15,30.06,12,2,12,0.00
2013-3-19,51,37,24,41,21,9,94,55,37,30.12,29.74,10,1,16,0.04
2013-3-20,52,42,28,38,27,16,85,55,38,30.03,29.65,21,6,30,0.08
2013-3-21,44,32,19,21,15,9,72,50,38,30.12,30.03,15,4,19,0.00
2013-3-22,40,31,22,19,13,9,73,49,39,30.21,30.12,17,5,24,0.00
2013-3-23,45,32,21,21,14,8,67,49,38,30.24,30.12,9,2,11,0.00
2013-3-24,48,34,19,24,15,7,64,46,37,30.18,30.06,11,2,11,0.00
2013-3-25,52,41,29,27,21,16,63,45,37,30.06,29.88,9,2,11,0.00
2013-3-26,53,43,36,34,28,21,75,56,39,29.97,29.91,8,2,9,0.00
2013-3-27,59,43,27,40,31,21,92,65,36,29.97,29.88,17,2,23,0.04
2013-3-28,60,46,37,41,36,30,93,72,36,30.12,29.97,11,2,14,0.16
2013-3-29,65,48,36,43,36,28,94,66,35,30.18,30.09,13,2,13,0.00
2013-3-30,70,50,31,40,33,25,97,56,33,30.18,30.03,13,2,13,0.00
2013-3-31,68,50,30,38,32,23,81,52,33,30.06,29.91,11,3,13,0.00